Вернуться в каталог

FENGYUN 1C DEB

LostPO
NORAD 30841·DEBRIS·🇨🇳 China

Запущен May 10, 1999 с Taiyuan Satellite Launch Center

Loading…

Ближайшие Пролёты (ближайшие 24 часа)

TLE

УстаревшееSource: Space-Track

Эпоха: May 6, 2023, 21:30 UTC

1 30841U 99025AWB 23126.89633737  .00002777  00000-0  34512-2 0  9991
2 30841  98.7440 105.7189 0352700 322.4213  35.2738 13.42326205790704

Отслеживайте FENGYUN 1C DEB в реальном времени с AllMySat

Download on the App Store